Time,TemperatureF,DewpointF,PressureIn,WindDirection,WindDirectionDegrees,WindSpeedMPH,WindSpeedGustMPH,Humidity,HourlyPrecipIn,Conditions,Clouds,dailyrainin,SoftwareType,DateUTC
2013-08-28 00:00:00,75.3,71.2,30.00,SE,130,0.0,0.0,87,0.00,RA,,0.00,WeatherDisplay:10.37,2013-08-28 05:00:00,
2013-08-28 00:05:00,75.3,71.5,30.00,SE,131,0.0,0.0,88,0.00,RA,,0.00,WeatherDisplay:10.37,2013-08-28 05:05:00,
2013-08-28 00:10:00,75.1,71.3,30.00,SE,130,0.0,0.0,88,0.00,RA,,0.00,WeatherDisplay:10.37,2013-08-28 05:10:00,
2013-08-28 00:15:00,75.0,71.2,30.00,SE,131,0.0,0.0,88,0.00,CLR,,0.00,WeatherDisplay:10.37,2013-08-28 05:15:00,
2013-08-28 00:20:00,74.9,71.1,30.00,SE,131,0.0,0.0,88,0.00,CLR,,0.00,WeatherDisplay:10.37,2013-08-28 05:20:00,
2013-08-28 00:25:00,74.8,71.0,30.00,SE,131,0.0,0.0,88,0.00,CLR,,0.00,WeatherDisplay:10.37,2013-08-28 05:25:00,
2013-08-28 00:30:00,74.7,70.9,30.00,SE,131,0.0,0.0,88,0.00,CLR,,0.00,WeatherDisplay:10.37,2013-08-28 05:30:00,
2013-08-28 00:35:00,74.7,70.9,30.00,SE,130,0.0,0.0,88,0.00,CLR,,0.00,WeatherDisplay:10.37,2013-08-28 05:35:00,
2013-08-28 00:40:00,74.6,71.1,30.01,SE,130,0.0,0.0,89,0.00,CLR,,0.00,WeatherDisplay:10.37,2013-08-28 05:40:00,
2013-08-28 00:45:00,74.5,71.0,30.01,SE,130,0.0,0.0,89,0.00,CLR,,0.00,WeatherDisplay:10.37,2013-08-28 05:45:00,
2013-08-28 00:50:00,74.4,70.9,30.01,SE,131,0.0,0.0,89,0.00,CLR,,0.00,WeatherDisplay:10.37,2013-08-28 05:50:00,
2013-08-28 00:55:00,74.4,70.9,30.01,SE,131,0.0,0.0,89,0.00,CLR,,0.00,WeatherDisplay:10.37,2013-08-28 05:55:00,
2013-08-28 01:00:00,74.3,70.8,30.01,SE,131,0.0,0.0,89,0.00,CLR,,0.00,WeatherDisplay:10.37,2013-08-28 06:00:00,
2013-08-28 01:05:00,74.2,70.7,30.01,SE,131,0.0,0.0,89,0.00,CLR,,0.00,WeatherDisplay:10.37,2013-08-28 06:05:00,
2013-08-28 01:10:00,74.1,70.6,30.01,SE,131,0.0,0.0,89,0.00,CLR,,0.00,WeatherDisplay:10.37,2013-08-28 06:10:00,
2013-08-28 01:15:00,74.0,70.6,30.01,SE,130,0.0,0.0,89,0.00,CLR,,0.00,WeatherDisplay:10.37,2013-08-28 06:15:00,
2013-08-28 01:20:00,73.9,70.5,30.01,SE,130,0.0,0.0,89,0.00,CLR,,0.00,WeatherDisplay:10.37,2013-08-28 06:20:00,
2013-08-28 01:25:00,73.8,70.4,30.01,SE,130,0.0,0.0,89,0.00,CLR,,0.00,WeatherDisplay:10.37,2013-08-28 06:25:00,
2013-08-28 01:30:00,73.8,70.4,30.01,SE,130,0.0,0.0,89,0.00,CLR,,0.00,WeatherDisplay:10.37,2013-08-28 06:30:00,
2013-08-28 01:35:00,73.8,70.4,30.01,SE,130,0.0,0.0,89,0.00,CLR,,0.00,WeatherDisplay:10.37,2013-08-28 06:35:00,
2013-08-28 01:40:00,73.7,70.3,30.01,SE,131,0.0,0.0,89,0.00,CLR,,0.00,WeatherDisplay:10.37,2013-08-28 06:40:00,
2013-08-28 01:45:00,73.6,70.2,30.01,SE,131,0.0,0.0,89,0.00,CLR,,0.00,WeatherDisplay:10.37,2013-08-28 06:45:00,
2013-08-28 01:50:00,73.5,70.1,30.00,SE,131,0.0,0.0,89,0.00,CLR,,0.00,WeatherDisplay:10.37,2013-08-28 06:50:00,
2013-08-28 01:55:00,73.5,70.1,30.00,SE,131,0.0,0.0,89,0.00,CLR,,0.00,WeatherDisplay:10.37,2013-08-28 06:55:00,
2013-08-28 02:00:00,73.5,70.4,30.00,SE,131,0.0,0.0,90,0.00,CLR,,0.00,WeatherDisplay:10.37,2013-08-28 07:00:00,
2013-08-28 02:05:00,73.4,70.3,30.01,SE,131,0.0,0.0,90,0.00,CLR,,0.00,WeatherDisplay:10.37,2013-08-28 07:05:00,
2013-08-28 02:10:00,73.4,70.3,30.01,SE,131,0.0,0.0,90,0.00,CLR,,0.00,WeatherDisplay:10.37,2013-08-28 07:10:00,
2013-08-28 02:15:00,73.5,70.4,30.01,SE,131,0.0,0.0,90,0.00,CLR,,0.00,WeatherDisplay:10.37,2013-08-28 07:15:00,
2013-08-28 02:20:00,73.5,70.4,30.00,SE,131,0.0,0.0,90,0.00,CLR,,0.00,WeatherDisplay:10.37,2013-08-28 07:20:00,
2013-08-28 02:25:00,73.4,70.3,30.00,SE,131,0.0,0.0,90,0.00,CLR,,0.00,WeatherDisplay:10.37,2013-08-28 07:25:00,
2013-08-28 02:30:00,73.4,70.6,30.01,SE,130,0.0,0.0,91,0.00,CLR,,0.00,WeatherDisplay:10.37,2013-08-28 07:30:00,
2013-08-28 02:35:00,73.4,70.6,30.00,SE,131,0.0,0.0,91,0.00,CLR,,0.00,WeatherDisplay:10.37,2013-08-28 07:35:00,
2013-08-28 02:40:00,73.3,70.5,30.01,SE,131,0.0,0.0,91,0.00,CLR,,0.00,WeatherDisplay:10.37,2013-08-28 07:40:00,
2013-08-28 02:45:00,73.3,70.5,30.01,SE,131,0.0,0.0,91,0.00,CLR,,0.00,WeatherDisplay:10.37,2013-08-28 07:45:00,
2013-08-28 02:50:00,73.3,70.5,30.01,SE,130,0.0,0.0,91,0.00,CLR,,0.00,WeatherDisplay:10.37,2013-08-28 07:50:00,
2013-08-28 02:55:00,73.4,70.6,30.01,SE,131,0.0,0.0,91,0.00,CLR,,0.00,WeatherDisplay:10.37,2013-08-28 07:55:00,
2013-08-28 03:00:00,73.4,70.6,30.01,SE,131,0.0,0.0,91,0.00,CLR,,0.00,WeatherDisplay:10.37,2013-08-28 08:00:00,
2013-08-28 03:05:00,73.4,70.6,30.01,SE,131,0.0,0.0,91,0.00,CLR,,0.00,WeatherDisplay:10.37,2013-08-28 08:05:00,
2013-08-28 03:10:00,73.4,70.6,30.01,SE,130,0.0,0.0,91,0.00,CLR,,0.00,WeatherDisplay:10.37,2013-08-28 08:10:00,
2013-08-28 03:15:00,73.4,70.6,30.01,SE,131,0.0,0.0,91,0.00,CLR,,0.00,WeatherDisplay:10.37,2013-08-28 08:15:00,
2013-08-28 03:20:00,73.4,70.6,30.01,SE,131,0.0,0.0,91,0.00,CLR,,0.00,WeatherDisplay:10.37,2013-08-28 08:20:00,
2013-08-28 03:25:00,73.4,70.9,30.01,SE,130,0.0,0.0,92,0.00,CLR,,0.00,WeatherDisplay:10.37,2013-08-28 08:25:00,
2013-08-28 03:30:00,73.4,70.9,30.01,SE,131,0.0,0.0,92,0.00,CLR,,0.00,WeatherDisplay:10.37,2013-08-28 08:30:00,
2013-08-28 03:35:00,73.4,70.9,30.01,SE,131,0.0,0.0,92,0.00,CLR,,0.00,WeatherDisplay:10.37,2013-08-28 08:35:00,
2013-08-28 03:40:00,73.5,71.0,30.01,SE,131,0.0,0.0,92,0.00,CLR,,0.00,WeatherDisplay:10.37,2013-08-28 08:40:00,
2013-08-28 03:45:00,73.5,71.0,30.01,SE,131,0.0,0.0,92,0.00,CLR,,0.00,WeatherDisplay:10.37,2013-08-28 08:45:00,
2013-08-28 03:50:00,73.5,71.0,30.01,SE,131,0.0,0.0,92,0.00,CLR,,0.00,WeatherDisplay:10.37,2013-08-28 08:50:00,
2013-08-28 03:55:00,73.5,71.0,30.00,SE,130,0.0,0.0,92,0.00,CLR,,0.00,WeatherDisplay:10.37,2013-08-28 08:55:00,
2013-08-28 04:00:00,73.5,71.0,30.00,SE,130,0.0,0.0,92,0.00,CLR,,0.00,WeatherDisplay:10.37,2013-08-28 09:00:00,
2013-08-28 04:05:00,73.5,71.0,30.00,SE,130,0.0,0.0,92,0.00,CLR,,0.00,WeatherDisplay:10.37,2013-08-28 09:05:00,
2013-08-28 04:10:00,73.5,71.0,30.00,SE,131,0.0,0.0,92,0.00,CLR,,0.00,WeatherDisplay:10.37,2013-08-28 09:10:00,
2013-08-28 04:15:00,73.6,71.1,30.00,SE,131,0.0,0.0,92,0.00,CLR,,0.00,WeatherDisplay:10.37,2013-08-28 09:15:00,
2013-08-28 04:20:00,73.6,71.1,30.00,SE,131,0.0,0.0,92,0.00,CLR,,0.00,WeatherDisplay:10.37,2013-08-28 09:20:00,
2013-08-28 04:25:00,73.6,71.1,30.00,SE,130,0.0,0.0,92,0.00,CLR,,0.00,WeatherDisplay:10.37,2013-08-28 09:25:00,
2013-08-28 04:30:00,73.5,71.0,30.00,SE,130,0.0,0.0,92,0.00,CLR,,0.00,WeatherDisplay:10.37,2013-08-28 09:30:00,
2013-08-28 04:34:00,73.5,71.0,30.00,SE,130,0.0,0.0,92,0.00,CLR,,0.00,WeatherDisplay:10.37,2013-08-28 09:34:00,
2013-08-28 04:39:00,73.3,70.8,30.00,SE,131,0.0,0.0,92,0.00,CLR,,0.00,WeatherDisplay:10.37,2013-08-28 09:39:00,
2013-08-28 04:44:00,73.1,70.6,30.00,SE,131,0.0,0.0,92,0.00,CLR,,0.00,WeatherDisplay:10.37,2013-08-28 09:44:00,
2013-08-28 04:49:00,72.9,70.4,30.00,SE,131,0.0,0.0,92,0.00,CLR,,0.00,WeatherDisplay:10.37,2013-08-28 09:49:00,
2013-08-28 04:54:00,73.0,70.5,30.00,SE,130,0.0,0.0,92,0.00,CLR,,0.00,WeatherDisplay:10.37,2013-08-28 09:54:00,
2013-08-28 04:59:00,72.9,70.4,30.00,SE,130,0.0,0.0,92,0.00,CLR,,0.00,WeatherDisplay:10.37,2013-08-28 09:59:00,
2013-08-28 05:04:00,73.0,70.5,30.01,SE,131,0.0,0.0,92,0.00,CLR,,0.00,WeatherDisplay:10.37,2013-08-28 10:04:00,
2013-08-28 05:09:00,73.0,70.5,30.01,SE,131,0.0,0.0,92,0.00,CLR,,0.00,WeatherDisplay:10.37,2013-08-28 10:09:00,
2013-08-28 05:14:00,72.9,70.4,30.01,SE,131,0.0,0.0,92,0.00,CLR,,0.00,WeatherDisplay:10.37,2013-08-28 10:14:00,
2013-08-28 05:19:00,72.8,70.3,30.01,SE,130,0.0,0.0,92,0.00,CLR,,0.00,WeatherDisplay:10.37,2013-08-28 10:19:00,
2013-08-28 05:24:00,72.7,70.2,30.01,SE,131,0.0,0.0,92,0.00,CLR,,0.00,WeatherDisplay:10.37,2013-08-28 10:24:00,
2013-08-28 05:29:00,72.6,70.1,30.01,SE,130,0.0,0.0,92,0.00,CLR,,0.00,WeatherDisplay:10.37,2013-08-28 10:29:00,
2013-08-28 05:34:00,72.3,69.8,30.01,SE,130,0.0,0.0,92,0.00,CLR,,0.00,WeatherDisplay:10.37,2013-08-28 10:34:00,
2013-08-28 05:39:00,72.2,69.7,30.01,SE,131,0.0,0.0,92,0.00,CLR,,0.00,WeatherDisplay:10.37,2013-08-28 10:39:00,
2013-08-28 05:44:00,72.1,69.6,30.01,SE,131,0.0,0.0,92,0.00,CLR,,0.00,WeatherDisplay:10.37,2013-08-28 10:44:00,
2013-08-28 05:49:00,72.1,69.6,30.01,SE,131,0.0,0.0,92,0.00,CLR,,0.00,WeatherDisplay:10.37,2013-08-28 10:49:00,
2013-08-28 05:54:00,72.0,69.5,30.01,SE,130,0.0,0.0,92,0.00,CLR,,0.00,WeatherDisplay:10.37,2013-08-28 10:54:00,
2013-08-28 05:59:00,72.0,69.5,30.01,SE,131,0.0,0.0,92,0.00,CLR,,0.00,WeatherDisplay:10.37,2013-08-28 10:59:00,
2013-08-28 06:04:00,71.9,69.4,30.01,SE,131,0.0,0.0,92,0.00,CLR,,0.00,WeatherDisplay:10.37,2013-08-28 11:04:00,
2013-08-28 06:09:00,71.8,69.3,30.02,SE,130,0.0,0.0,92,0.00,CLR,,0.00,WeatherDisplay:10.37,2013-08-28 11:09:00,
2013-08-28 06:14:00,71.7,69.3,30.01,SE,131,0.0,0.0,92,0.00,CLR,,0.00,WeatherDisplay:10.37,2013-08-28 11:14:00,
2013-08-28 06:19:00,71.6,69.2,30.01,SE,131,0.0,0.0,92,0.00,CLR,,0.00,WeatherDisplay:10.37,2013-08-28 11:19:00,
2013-08-28 06:24:00,71.5,69.1,30.01,SE,131,0.0,0.0,92,0.00,CLR,,0.00,WeatherDisplay:10.37,2013-08-28 11:24:00,
2013-08-28 06:29:00,71.6,69.2,30.01,SE,131,0.0,0.0,92,0.00,CLR,,0.00,WeatherDisplay:10.37,2013-08-28 11:29:00,
2013-08-28 06:34:00,71.8,69.7,30.01,SE,131,0.0,0.0,93,0.00,CLR,,0.00,WeatherDisplay:10.37,2013-08-28 11:34:00,
2013-08-28 06:39:00,72.0,69.9,30.01,SE,131,0.0,0.0,93,0.00,CLR,,0.00,WeatherDisplay:10.37,2013-08-28 11:39:00,
2013-08-28 06:44:00,72.3,70.2,30.02,SE,130,0.0,0.0,93,0.00,CLR,,0.00,WeatherDisplay:10.37,2013-08-28 11:44:00,
2013-08-28 06:49:00,72.6,70.5,30.01,SE,131,0.0,0.0,93,0.00,CLR,,0.00,WeatherDisplay:10.37,2013-08-28 11:49:00,
2013-08-28 06:54:00,72.8,70.7,30.02,SE,131,0.0,0.0,93,0.00,CLR,,0.00,WeatherDisplay:10.37,2013-08-28 11:54:00,
2013-08-28 06:59:00,72.8,70.7,30.02,SE,131,0.0,0.0,93,0.00,CLR,,0.00,WeatherDisplay:10.37,2013-08-28 11:59:00,
2013-08-28 07:04:00,72.6,70.5,30.02,SE,131,0.0,0.0,93,0.00,CLR,,0.00,WeatherDisplay:10.37,2013-08-28 12:04:00,
2013-08-28 07:09:00,72.5,70.4,30.02,SE,131,0.0,0.0,93,0.00,CLR,,0.00,WeatherDisplay:10.37,2013-08-28 12:09:00,
2013-08-28 07:14:00,72.3,70.2,30.03,SE,130,0.0,0.0,93,0.00,CLR,,0.00,WeatherDisplay:10.37,2013-08-28 12:14:00,
2013-08-28 07:19:00,71.8,69.7,30.03,SE,131,0.0,0.0,93,0.00,CLR,,0.00,WeatherDisplay:10.37,2013-08-28 12:19:00,
2013-08-28 07:24:00,71.7,69.6,30.03,SE,131,0.0,0.0,93,0.00,CLR,,0.00,WeatherDisplay:10.37,2013-08-28 12:24:00,
2013-08-28 07:29:00,71.6,69.5,30.03,SE,131,0.0,0.0,93,0.00,CLR,,0.00,WeatherDisplay:10.37,2013-08-28 12:29:00,
2013-08-28 07:34:00,71.6,69.5,30.03,SE,131,0.0,0.0,93,0.00,CLR,,0.00,WeatherDisplay:10.37,2013-08-28 12:34:00,
2013-08-28 07:39:00,71.7,69.6,30.03,SE,131,0.0,0.0,93,0.00,CLR,,0.00,WeatherDisplay:10.37,2013-08-28 12:39:00,
2013-08-28 07:44:00,72.0,69.9,30.03,SE,130,0.0,0.0,93,0.00,CLR,,0.00,WeatherDisplay:10.37,2013-08-28 12:44:00,
2013-08-28 07:49:00,72.1,70.0,30.03,SE,130,0.0,0.0,93,0.00,CLR,,0.00,WeatherDisplay:10.37,2013-08-28 12:49:00,
2013-08-28 07:54:00,72.1,70.0,30.03,SE,130,0.0,0.0,93,0.00,CLR,,0.00,WeatherDisplay:10.37,2013-08-28 12:54:00,
2013-08-28 07:59:00,72.2,70.4,30.03,SE,131,0.0,0.0,94,0.00,CLR,,0.00,WeatherDisplay:10.37,2013-08-28 12:59:00,
2013-08-28 08:04:00,72.5,70.7,30.04,SE,130,0.0,0.0,94,0.00,CLR,,0.00,WeatherDisplay:10.37,2013-08-28 13:04:00,
2013-08-28 08:09:00,72.8,71.0,30.04,SE,131,0.0,0.0,94,0.00,CLR,,0.00,WeatherDisplay:10.37,2013-08-28 13:09:00,
2013-08-28 08:14:00,72.9,71.1,30.04,SE,131,0.0,0.0,94,0.00,CLR,,0.00,WeatherDisplay:10.37,2013-08-28 13:14:00,
2013-08-28 08:19:00,73.1,71.3,30.04,SE,130,0.0,0.0,94,0.00,CLR,,0.00,WeatherDisplay:10.37,2013-08-28 13:19:00,
2013-08-28 08:24:00,73.3,71.5,30.05,SE,130,2.3,2.3,94,0.00,CLR,,0.00,WeatherDisplay:10.37,2013-08-28 13:24:00,
2013-08-28 08:29:00,73.5,71.7,30.05,SE,130,0.0,0.0,94,0.00,CLR,,0.00,WeatherDisplay:10.37,2013-08-28 13:29:00,
2013-08-28 08:34:00,73.8,72.0,30.05,SE,130,0.0,0.0,94,0.00,CLR,,0.00,WeatherDisplay:10.37,2013-08-28 13:34:00,
2013-08-28 08:39:00,74.0,72.2,30.05,SE,130,0.0,0.0,94,0.00,CLR,,0.00,WeatherDisplay:10.37,2013-08-28 13:39:00,
2013-08-28 08:44:00,74.4,72.6,30.05,SE,130,0.0,0.0,94,0.00,CLR,,0.00,WeatherDisplay:10.37,2013-08-28 13:44:00,
2013-08-28 08:49:00,74.7,72.9,30.05,SE,131,0.0,0.0,94,0.00,CLR,,0.00,WeatherDisplay:10.37,2013-08-28 13:49:00,
2013-08-28 08:54:00,74.9,73.1,30.05,SE,131,0.0,0.0,94,0.00,CLR,,0.00,WeatherDisplay:10.37,2013-08-28 13:54:00,
2013-08-28 08:59:00,75.3,73.5,30.05,SE,131,0.0,0.0,94,0.00,CLR,,0.00,WeatherDisplay:10.37,2013-08-28 13:59:00,
2013-08-28 09:04:00,75.5,73.7,30.05,SE,130,0.0,0.0,94,0.00,CLR,,0.00,WeatherDisplay:10.37,2013-08-28 14:04:00,
2013-08-28 09:09:00,75.7,73.8,30.05,SE,131,0.0,0.0,94,0.00,CLR,,0.00,WeatherDisplay:10.37,2013-08-28 14:09:00,
2013-08-28 09:14:00,75.8,73.9,30.05,SE,131,2.3,2.3,94,0.00,CLR,,0.00,WeatherDisplay:10.37,2013-08-28 14:14:00,
2013-08-28 09:19:00,76.0,73.8,30.05,SE,131,3.5,3.5,93,0.00,CLR,,0.00,WeatherDisplay:10.37,2013-08-28 14:19:00,
2013-08-28 09:24:00,76.1,73.9,30.05,SE,131,4.0,4.0,93,0.00,CLR,,0.00,WeatherDisplay:10.37,2013-08-28 14:24:00,
2013-08-28 09:29:00,76.2,73.7,30.06,SE,130,0.0,0.0,92,0.00,CLR,,0.00,WeatherDisplay:10.37,2013-08-28 14:29:00,
2013-08-28 09:34:00,76.5,73.7,30.06,SE,130,0.0,0.0,91,0.00,CLR,,0.00,WeatherDisplay:10.37,2013-08-28 14:34:00,
2013-08-28 09:39:00,76.9,73.7,30.06,SE,134,6.0,6.0,90,0.00,CLR,,0.00,WeatherDisplay:10.37,2013-08-28 14:39:00,
2013-08-28 09:44:00,77.4,73.6,30.06,SE,134,3.5,3.5,88,0.00,CLR,,0.00,WeatherDisplay:10.37,2013-08-28 14:44:00,
2013-08-28 09:49:00,77.7,73.5,30.06,SE,134,5.0,5.0,87,0.00,CLR,,0.00,WeatherDisplay:10.37,2013-08-28 14:49:00,
2013-08-28 09:54:00,77.9,72.7,30.06,SE,134,3.5,3.5,84,0.00,CLR,,0.00,WeatherDisplay:10.37,2013-08-28 14:54:00,
2013-08-28 09:59:00,78.1,72.9,30.06,SE,134,0.0,0.0,84,0.00,CLR,,0.00,WeatherDisplay:10.37,2013-08-28 14:59:00,
2013-08-28 10:04:00,78.5,72.9,30.06,SE,134,0.0,0.0,83,0.00,CLR,,0.00,WeatherDisplay:10.37,2013-08-28 15:04:00,
2013-08-28 10:09:00,78.8,72.5,30.06,SE,134,3.5,3.5,81,0.00,CLR,,0.00,WeatherDisplay:10.37,2013-08-28 15:09:00,
2013-08-28 10:14:00,79.3,72.6,30.06,SE,134,1.2,1.2,80,0.00,CLR,,0.00,WeatherDisplay:10.37,2013-08-28 15:14:00,
2013-08-28 10:19:00,80.1,72.6,30.06,SE,134,1.2,1.2,78,0.00,CLR,,0.00,WeatherDisplay:10.37,2013-08-28 15:19:00,
2013-08-28 10:24:00,80.8,72.5,30.06,SE,135,6.0,6.0,76,0.00,CLR,,0.00,WeatherDisplay:10.37,2013-08-28 15:24:00,
2013-08-28 10:29:00,81.1,72.0,30.07,SE,136,1.2,1.2,74,0.00,CLR,,0.00,WeatherDisplay:10.37,2013-08-28 15:29:00,
2013-08-28 10:34:00,81.6,71.7,30.06,SE,136,4.6,4.6,72,0.00,CLR,,0.00,WeatherDisplay:10.37,2013-08-28 15:34:00,
2013-08-28 10:39:00,82.3,72.0,30.07,SE,136,2.3,0.0,71,0.00,CLR,,0.00,WeatherDisplay:10.37,2013-08-28 15:39:00,
2013-08-28 10:44:00,82.9,70.4,30.07,SSE,157,6.9,6.9,66,0.00,CLR,,0.00,WeatherDisplay:10.37,2013-08-28 15:44:00,
2013-08-28 10:49:00,83.1,71.0,30.07,SSE,157,6.0,6.0,67,0.00,CLR,,0.00,WeatherDisplay:10.37,2013-08-28 15:49:00,
2013-08-28 10:54:00,83.2,71.1,30.07,SSE,157,4.6,4.6,67,0.00,CLR,,0.00,WeatherDisplay:10.37,2013-08-28 15:54:00,
2013-08-28 10:59:00,83.2,71.1,30.07,SSE,157,3.5,0.0,67,0.00,CLR,,0.00,WeatherDisplay:10.37,2013-08-28 15:59:00,
2013-08-28 11:04:00,83.4,71.3,30.06,SSE,158,0.0,0.0,67,0.00,CLR,,0.00,WeatherDisplay:10.37,2013-08-28 16:04:00,
2013-08-28 11:09:00,84.0,71.0,30.06,SSE,158,0.0,0.0,65,0.00,CLR,,0.00,WeatherDisplay:10.37,2013-08-28 16:09:00,
2013-08-28 11:14:00,84.5,71.0,30.06,SSE,159,4.6,4.6,64,0.00,CLR,,0.00,WeatherDisplay:10.37,2013-08-28 16:14:00,
2013-08-28 11:19:00,84.5,71.0,30.06,SSE,159,3.0,3.0,64,0.00,CLR,,0.00,WeatherDisplay:10.37,2013-08-28 16:19:00,
2013-08-28 11:24:00,84.4,70.9,30.06,SSE,160,2.3,2.3,64,0.00,CLR,,0.00,WeatherDisplay:10.37,2013-08-28 16:24:00,
2013-08-28 11:29:00,84.3,70.8,30.06,SSE,160,0.0,0.0,64,0.00,CLR,,0.00,WeatherDisplay:10.37,2013-08-28 16:29:00,
2013-08-28 11:34:00,84.3,70.3,30.06,SSE,163,2.3,2.3,63,0.00,CLR,,0.00,WeatherDisplay:10.37,2013-08-28 16:34:00,
2013-08-28 11:39:00,84.3,70.3,30.06,SSE,163,0.0,0.0,63,0.00,CLR,,0.00,WeatherDisplay:10.37,2013-08-28 16:39:00,
2013-08-28 11:44:00,84.8,69.4,30.06,South,171,5.8,5.8,60,0.00,CLR,,0.00,WeatherDisplay:10.37,2013-08-28 16:44:00,
2013-08-28 11:49:00,85.1,69.7,30.06,South,171,2.3,2.3,60,0.00,CLR,,0.00,WeatherDisplay:10.37,2013-08-28 16:49:00,
2013-08-28 11:54:00,85.6,68.6,30.06,SSE,157,6.9,6.9,57,0.00,CLR,,0.00,WeatherDisplay:10.37,2013-08-28 16:54:00,
2013-08-28 11:59:00,86.0,69.5,30.06,SSE,156,3.5,3.5,58,0.00,CLR,,0.00,WeatherDisplay:10.37,2013-08-28 16:59:00,
2013-08-28 12:04:00,86.1,69.1,30.06,SSE,157,0.0,0.0,57,0.00,CLR,,0.00,WeatherDisplay:10.37,2013-08-28 17:04:00,
2013-08-28 12:09:00,86.4,68.3,30.06,SSE,161,3.5,3.5,55,0.00,CLR,,0.00,WeatherDisplay:10.37,2013-08-28 17:09:00,
2013-08-28 12:14:00,86.6,69.0,30.06,SSE,161,0.0,0.0,56,0.00,CLR,,0.00,WeatherDisplay:10.37,2013-08-28 17:14:00,
2013-08-28 12:19:00,86.6,69.0,30.05,SSE,164,0.0,0.0,56,0.00,CLR,,0.00,WeatherDisplay:10.37,2013-08-28 17:19:00,
2013-08-28 12:24:00,86.7,69.1,30.05,ESE,118,10.4,10.4,56,0.00,CLR,,0.00,WeatherDisplay:10.37,2013-08-28 17:24:00,
2013-08-28 12:29:00,86.8,68.7,30.05,ESE,116,7.0,7.0,55,0.00,CLR,,0.00,WeatherDisplay:10.37,2013-08-28 17:29:00,
2013-08-28 12:34:00,86.8,69.2,30.05,ESE,119,3.5,0.0,56,0.00,CLR,,0.00,WeatherDisplay:10.37,2013-08-28 17:34:00,
2013-08-28 12:39:00,86.8,69.2,30.04,SE,127,3.5,3.5,56,0.00,CLR,,0.00,WeatherDisplay:10.37,2013-08-28 17:39:00,
2013-08-28 12:44:00,87.5,69.9,30.04,SSE,148,10.4,10.4,56,0.00,CLR,,0.00,WeatherDisplay:10.37,2013-08-28 17:44:00,
2013-08-28 12:49:00,87.9,68.6,30.04,SSE,148,3.5,3.5,53,0.00,CLR,,0.00,WeatherDisplay:10.37,2013-08-28 17:49:00,
2013-08-28 12:54:00,88.0,69.3,30.04,SSE,151,4.6,4.6,54,0.00,CLR,,0.00,WeatherDisplay:10.37,2013-08-28 17:54:00,
2013-08-28 12:59:00,88.8,68.3,30.04,SE,145,12.7,12.7,51,0.00,CLR,,0.00,WeatherDisplay:10.37,2013-08-28 17:59:00,
2013-08-28 13:04:00,89.3,68.2,30.04,SE,140,10.4,10.4,50,0.00,CLR,,0.00,WeatherDisplay:10.37,2013-08-28 18:04:00,
2013-08-28 13:09:00,89.3,68.2,30.04,South,178,11.5,11.5,50,0.00,CLR,,0.00,WeatherDisplay:10.37,2013-08-28 18:09:00,
2013-08-28 13:14:00,89.4,68.3,30.04,South,179,11.5,11.5,50,0.00,CLR,,0.00,WeatherDisplay:10.37,2013-08-28 18:14:00,
2013-08-28 13:19:00,89.4,67.7,30.03,South,171,6.9,6.9,49,0.00,CLR,,0.00,WeatherDisplay:10.37,2013-08-28 18:19:00,
2013-08-28 13:24:00,89.6,68.5,30.03,SE,136,6.9,6.9,50,0.00,CLR,,0.00,WeatherDisplay:10.37,2013-08-28 18:24:00,
2013-08-28 13:29:00,89.8,67.5,30.03,SSE,150,11.5,11.5,48,0.00,CLR,,0.00,WeatherDisplay:10.37,2013-08-28 18:29:00,
2013-08-28 13:34:00,90.2,67.2,30.03,SE,130,2.3,2.3,47,0.00,CLR,,0.00,WeatherDisplay:10.37,2013-08-28 18:34:00,
2013-08-28 13:39:00,90.7,67.1,30.03,SE,131,3.0,3.0,46,0.00,CLR,,0.00,WeatherDisplay:10.37,2013-08-28 18:39:00,
2013-08-28 13:44:00,90.8,66.5,30.03,SSE,155,10.4,10.4,45,0.00,CLR,,0.00,WeatherDisplay:10.37,2013-08-28 18:44:00,
2013-08-28 13:49:00,90.8,67.2,30.03,SE,146,10.4,10.4,46,0.00,CLR,,0.00,WeatherDisplay:10.37,2013-08-28 18:49:00,
2013-08-28 13:54:00,90.7,67.1,30.03,SE,142,0.0,0.0,46,0.00,CLR,,0.00,WeatherDisplay:10.37,2013-08-28 18:54:00,
2013-08-28 13:59:00,91.0,67.3,30.02,SSE,148,13.8,13.8,46,0.00,CLR,,0.00,WeatherDisplay:10.37,2013-08-28 18:59:00,
2013-08-28 14:04:00,91.0,66.7,30.02,SE,145,3.5,3.5,45,0.00,CLR,,0.00,WeatherDisplay:10.37,2013-08-28 19:04:00,
2013-08-28 14:09:00,91.1,66.8,30.02,East,98,5.8,5.8,45,0.00,CLR,,0.00,WeatherDisplay:10.37,2013-08-28 19:09:00,
2013-08-28 14:14:00,91.7,67.3,30.02,South,176,11.5,11.5,45,0.00,CLR,,0.00,WeatherDisplay:10.37,2013-08-28 19:14:00,
2013-08-28 14:19:00,91.8,66.8,30.01,South,171,5.0,5.0,44,0.00,CLR,,0.00,WeatherDisplay:10.37,2013-08-28 19:19:00,
2013-08-28 14:24:00,91.9,66.9,30.01,SE,144,11.5,11.5,44,0.00,CLR,,0.00,WeatherDisplay:10.37,2013-08-28 19:24:00,
2013-08-28 14:29:00,91.7,66.7,30.01,SE,144,0.0,0.0,44,0.00,CLR,,0.00,WeatherDisplay:10.37,2013-08-28 19:29:00,
2013-08-28 14:34:00,92.0,67.6,30.01,SSE,164,11.5,11.5,45,0.00,CLR,,0.00,WeatherDisplay:10.37,2013-08-28 19:34:00,
2013-08-28 14:39:00,92.1,67.1,30.01,ESE,122,10.4,10.4,44,0.00,CLR,,0.00,WeatherDisplay:10.37,2013-08-28 19:39:00,
2013-08-28 14:44:00,91.2,68.2,30.01,ESE,113,5.0,5.0,47,0.00,CLR,,0.00,WeatherDisplay:10.37,2013-08-28 19:44:00,
2013-08-28 14:49:00,91.5,67.2,30.01,ESE,122,8.1,8.1,45,0.00,CLR,,0.00,WeatherDisplay:10.37,2013-08-28 19:49:00,
2013-08-28 14:54:00,91.7,67.3,30.00,SSE,152,9.2,9.2,45,0.00,CLR,,0.00,WeatherDisplay:10.37,2013-08-28 19:54:00,
2013-08-28 14:59:00,92.3,67.2,30.00,SSE,167,9.2,9.2,44,0.00,CLR,,0.00,WeatherDisplay:10.37,2013-08-28 19:59:00,
2013-08-28 15:04:00,92.4,66.7,29.99,SSE,153,10.4,10.4,43,0.00,CLR,,0.00,WeatherDisplay:10.37,2013-08-28 20:04:00,
2013-08-28 15:09:00,92.6,67.5,30.00,SSE,164,3.5,3.5,44,0.00,CLR,,0.00,WeatherDisplay:10.37,2013-08-28 20:09:00,
2013-08-28 15:14:00,92.9,67.1,29.99,SSE,150,3.5,3.5,43,0.00,CLR,,0.00,WeatherDisplay:10.37,2013-08-28 20:14:00,
2013-08-28 15:19:00,92.7,66.2,29.99,SE,126,9.2,9.2,42,0.00,CLR,,0.00,WeatherDisplay:10.37,2013-08-28 20:19:00,
2013-08-28 15:24:00,93.1,66.6,29.99,SSE,159,9.2,9.2,42,0.00,CLR,,0.00,WeatherDisplay:10.37,2013-08-28 20:24:00,
2013-08-28 15:29:00,93.2,66.7,29.99,South,176,11.5,11.5,42,0.00,CLR,,0.00,WeatherDisplay:10.37,2013-08-28 20:29:00,
2013-08-28 15:34:00,93.3,66.8,29.98,SE,138,9.2,9.2,42,0.00,CLR,,0.00,WeatherDisplay:10.37,2013-08-28 20:34:00,
2013-08-28 15:39:00,93.2,67.4,29.98,SE,138,13.0,13.0,43,0.00,CLR,,0.00,WeatherDisplay:10.37,2013-08-28 20:39:00,
2013-08-28 15:44:00,92.6,67.5,29.98,SE,146,3.0,3.0,44,0.00,CLR,,0.00,WeatherDisplay:10.37,2013-08-28 20:44:00,
2013-08-28 15:49:00,92.3,67.2,29.98,SE,138,4.0,4.0,44,0.00,CLR,,0.00,WeatherDisplay:10.37,2013-08-28 20:49:00,
2013-08-28 15:54:00,91.9,66.9,29.98,SE,134,5.0,5.0,44,0.00,CLR,,0.00,WeatherDisplay:10.37,2013-08-28 20:54:00,
2013-08-28 15:59:00,91.7,67.3,29.97,SE,142,5.8,5.8,45,0.00,CLR,,0.00,WeatherDisplay:10.37,2013-08-28 20:59:00,
2013-08-28 16:04:00,92.1,67.7,29.97,East,98,10.0,10.0,45,0.00,CLR,,0.00,WeatherDisplay:10.37,2013-08-28 21:04:00,
2013-08-28 16:09:00,92.6,67.5,29.97,SE,140,10.4,10.4,44,0.00,CLR,,0.00,WeatherDisplay:10.37,2013-08-28 21:09:00,
2013-08-28 16:14:00,92.9,67.8,29.97,South,181,13.0,13.0,44,0.00,CLR,,0.00,WeatherDisplay:10.37,2013-08-28 21:14:00,
2013-08-28 16:19:00,93.2,66.7,29.97,South,173,11.5,11.5,42,0.00,CLR,,0.00,WeatherDisplay:10.37,2013-08-28 21:19:00,
2013-08-28 16:24:00,93.1,66.6,29.97,South,169,4.6,4.6,42,0.00,CLR,,0.00,WeatherDisplay:10.37,2013-08-28 21:24:00,
2013-08-28 16:29:00,93.1,66.6,29.97,South,169,0.0,0.0,42,0.00,CLR,,0.00,WeatherDisplay:10.37,2013-08-28 21:29:00,
2013-08-28 16:34:00,93.0,66.5,29.97,ESE,109,10.0,10.0,42,0.00,CLR,,0.00,WeatherDisplay:10.37,2013-08-28 21:34:00,
2013-08-28 16:39:00,92.6,66.8,29.96,SE,127,9.2,9.2,43,0.00,CLR,,0.00,WeatherDisplay:10.37,2013-08-28 21:39:00,
2013-08-28 16:44:00,92.0,67.0,29.96,ESE,121,11.5,11.5,44,0.00,CLR,,0.00,WeatherDisplay:10.37,2013-08-28 21:44:00,
2013-08-28 16:49:00,91.7,67.3,29.96,SE,134,3.5,3.5,45,0.00,CLR,,0.00,WeatherDisplay:10.37,2013-08-28 21:49:00,
2013-08-28 16:54:00,92.3,67.2,29.96,SE,144,11.5,11.5,44,0.00,CLR,,0.00,WeatherDisplay:10.37,2013-08-28 21:54:00,
2013-08-28 16:59:00,92.5,66.7,29.96,South,185,11.5,11.5,43,0.00,CLR,,0.00,WeatherDisplay:10.37,2013-08-28 21:59:00,
2013-08-28 17:04:00,92.3,66.6,29.96,SE,126,6.9,6.9,43,0.00,CLR,,0.00,WeatherDisplay:10.37,2013-08-28 22:04:00,
2013-08-28 17:09:00,92.2,67.1,29.96,SE,136,4.6,4.6,44,0.00,CLR,,0.00,WeatherDisplay:10.37,2013-08-28 22:09:00,
2013-08-28 17:14:00,92.4,67.3,29.96,ESE,114,7.0,7.0,44,0.00,CLR,,0.00,WeatherDisplay:10.37,2013-08-28 22:14:00,
2013-08-28 17:19:00,92.4,66.7,29.96,ESE,103,8.1,8.1,43,0.00,CLR,,0.00,WeatherDisplay:10.37,2013-08-28 22:19:00,
2013-08-28 17:24:00,92.7,66.9,29.96,SE,132,6.9,6.9,43,0.00,CLR,,0.00,WeatherDisplay:10.37,2013-08-28 22:24:00,
2013-08-28 17:29:00,92.8,66.3,29.96,East,97,4.6,4.6,42,0.00,CLR,,0.00,WeatherDisplay:10.37,2013-08-28 22:29:00,
2013-08-28 17:34:00,92.9,66.4,29.95,SE,144,4.0,4.0,42,0.00,CLR,,0.00,WeatherDisplay:10.37,2013-08-28 22:34:00,
2013-08-28 17:39:00,93.1,66.6,29.95,SE,145,9.0,9.0,42,0.00,CLR,,0.00,WeatherDisplay:10.37,2013-08-28 22:39:00,
2013-08-28 17:44:00,93.2,66.7,29.95,SE,142,13.8,13.8,42,0.00,CLR,,0.00,WeatherDisplay:10.37,2013-08-28 22:44:00,
2013-08-28 17:49:00,93.1,66.6,29.95,SSE,149,11.5,11.5,42,0.00,CLR,,0.00,WeatherDisplay:10.37,2013-08-28 22:49:00,
2013-08-28 17:54:00,93.0,66.5,29.95,SE,146,11.5,11.5,42,0.00,CLR,,0.00,WeatherDisplay:10.37,2013-08-28 22:54:00,
2013-08-28 17:59:00,93.0,66.5,29.95,SSE,150,9.2,9.2,42,0.00,CLR,,0.00,WeatherDisplay:10.37,2013-08-28 22:59:00,
2013-08-28 18:04:00,93.1,66.6,29.95,ESE,111,6.9,6.9,42,0.00,CLR,,0.00,WeatherDisplay:10.37,2013-08-28 23:04:00,
2013-08-28 18:09:00,93.1,66.6,29.95,SSE,155,6.0,6.0,42,0.00,CLR,,0.00,WeatherDisplay:10.37,2013-08-28 23:09:00,
2013-08-28 18:14:00,92.9,66.4,29.95,SE,132,7.0,7.0,42,0.00,CLR,,0.00,WeatherDisplay:10.37,2013-08-28 23:14:00,
2013-08-28 18:19:00,92.8,66.3,29.95,SE,139,9.2,9.2,42,0.00,CLR,,0.00,WeatherDisplay:10.37,2013-08-28 23:19:00,
2013-08-28 18:24:00,92.9,66.4,29.95,SE,136,6.9,6.9,42,0.00,CLR,,0.00,WeatherDisplay:10.37,2013-08-28 23:24:00,
2013-08-28 18:29:00,92.8,66.3,29.94,SE,134,4.6,4.6,42,0.00,CLR,,0.00,WeatherDisplay:10.37,2013-08-28 23:29:00,
2013-08-28 18:34:00,92.7,66.2,29.94,SE,133,4.6,4.6,42,0.00,CLR,,0.00,WeatherDisplay:10.37,2013-08-28 23:34:00,
2013-08-28 18:39:00,92.6,66.8,29.94,SE,135,6.0,6.0,43,0.00,CLR,,0.00,WeatherDisplay:10.37,2013-08-28 23:39:00,
2013-08-28 18:44:00,92.4,66.0,29.94,SSE,153,9.2,9.2,42,0.00,CLR,,0.00,WeatherDisplay:10.37,2013-08-28 23:44:00,
2013-08-28 18:49:00,92.2,65.8,29.94,SE,137,5.8,5.8,42,0.00,CLR,,0.00,WeatherDisplay:10.37,2013-08-28 23:49:00,
2013-08-28 18:54:00,92.1,66.4,29.94,SE,142,7.0,7.0,43,0.00,CLR,,0.00,WeatherDisplay:10.37,2013-08-28 23:54:00,
2013-08-28 18:59:00,92.0,66.3,29.94,SE,141,5.0,5.0,43,0.00,CLR,,0.00,WeatherDisplay:10.37,2013-08-28 23:59:00,
2013-08-28 19:04:00,91.8,66.1,29.95,SE,138,5.8,5.8,43,0.00,CLR,,0.00,WeatherDisplay:10.37,2013-08-29 00:04:00,
2013-08-28 19:09:00,91.6,65.9,29.95,SE,137,3.5,3.5,43,0.00,CLR,,0.00,WeatherDisplay:10.37,2013-08-29 00:09:00,
2013-08-28 19:14:00,91.2,65.6,29.95,SE,126,9.2,9.2,43,0.00,CLR,,0.00,WeatherDisplay:10.37,2013-08-29 00:14:00,
2013-08-28 19:19:00,90.8,65.9,29.95,SE,126,4.6,4.6,44,0.00,CLR,,0.00,WeatherDisplay:10.37,2013-08-29 00:19:00,
2013-08-28 19:24:00,90.6,65.7,29.95,SE,127,3.5,3.5,44,0.00,CLR,,0.00,WeatherDisplay:10.37,2013-08-29 00:24:00,
2013-08-28 19:29:00,90.5,65.6,29.95,SE,126,3.5,3.5,44,0.00,CLR,,0.00,WeatherDisplay:10.37,2013-08-29 00:29:00,
2013-08-28 19:34:00,90.2,66.0,29.95,SE,125,2.0,0.0,45,0.00,CLR,,0.00,WeatherDisplay:10.37,2013-08-29 00:34:00,
2013-08-28 19:39:00,90.0,65.8,29.95,SE,125,0.0,0.0,45,0.00,CLR,,0.00,WeatherDisplay:10.37,2013-08-29 00:39:00,
2013-08-28 19:44:00,89.8,65.6,29.95,SE,125,0.0,0.0,45,0.00,CLR,,0.00,WeatherDisplay:10.37,2013-08-29 00:44:00,
2013-08-28 19:49:00,89.6,66.1,29.95,SE,126,0.0,0.0,46,0.00,CLR,,0.00,WeatherDisplay:10.37,2013-08-29 00:49:00,
2013-08-28 19:54:00,89.4,65.9,29.95,SE,126,0.0,0.0,46,0.00,CLR,,0.00,WeatherDisplay:10.37,2013-08-29 00:54:00,
2013-08-28 19:59:00,89.1,65.6,29.95,SE,126,0.0,0.0,46,0.00,CLR,,0.00,WeatherDisplay:10.37,2013-08-29 00:59:00,
2013-08-28 20:04:00,88.9,66.1,29.95,SE,126,0.0,0.0,47,0.00,CLR,,0.00,WeatherDisplay:10.37,2013-08-29 01:04:00,
2013-08-28 20:09:00,88.7,66.5,29.95,SE,126,0.0,0.0,48,0.00,CLR,,0.00,WeatherDisplay:10.37,2013-08-29 01:09:00,
2013-08-28 20:14:00,88.5,66.3,29.95,SE,126,0.0,0.0,48,0.00,CLR,,0.00,WeatherDisplay:10.37,2013-08-29 01:14:00,
2013-08-28 20:19:00,88.3,66.1,29.95,SE,126,0.0,0.0,48,0.00,CLR,,0.00,WeatherDisplay:10.37,2013-08-29 01:19:00,
2013-08-28 20:24:00,88.0,65.8,29.95,SE,126,0.0,0.0,48,0.00,CLR,,0.00,WeatherDisplay:10.37,2013-08-29 01:24:00,
2013-08-28 20:29:00,87.7,65.6,29.95,SE,125,0.0,0.0,48,0.00,CLR,,0.00,WeatherDisplay:10.37,2013-08-29 01:29:00,
2013-08-28 20:34:00,87.4,65.9,29.95,SE,125,0.0,0.0,49,0.00,CLR,,0.00,WeatherDisplay:10.37,2013-08-29 01:34:00,
2013-08-28 20:39:00,87.0,66.1,29.96,SE,125,0.0,0.0,50,0.00,CLR,,0.00,WeatherDisplay:10.37,2013-08-29 01:39:00,
2013-08-28 20:44:00,86.7,65.8,29.95,SE,126,0.0,0.0,50,0.00,CLR,,0.00,WeatherDisplay:10.37,2013-08-29 01:44:00,
2013-08-28 20:49:00,86.5,66.2,29.96,SE,126,0.0,0.0,51,0.00,CLR,,0.00,WeatherDisplay:10.37,2013-08-29 01:49:00,
2013-08-28 20:54:00,86.2,65.9,29.96,SE,126,0.0,0.0,51,0.00,CLR,,0.00,WeatherDisplay:10.37,2013-08-29 01:54:00,
2013-08-28 20:59:00,85.9,66.2,29.96,SE,125,0.0,0.0,52,0.00,CLR,,0.00,WeatherDisplay:10.37,2013-08-29 01:59:00,
2013-08-28 21:04:00,85.6,66.5,29.96,SE,125,0.0,0.0,53,0.00,CLR,,0.00,WeatherDisplay:10.37,2013-08-29 02:04:00,
2013-08-28 21:09:00,85.4,66.3,29.96,SE,126,0.0,0.0,53,0.00,CLR,,0.00,WeatherDisplay:10.37,2013-08-29 02:09:00,
2013-08-28 21:14:00,85.0,66.5,29.96,SE,126,0.0,0.0,54,0.00,CLR,,0.00,WeatherDisplay:10.37,2013-08-29 02:14:00,
2013-08-28 21:19:00,84.7,66.7,29.97,SE,126,0.0,0.0,55,0.00,CLR,,0.00,WeatherDisplay:10.37,2013-08-29 02:19:00,
2013-08-28 21:24:00,84.4,66.5,29.97,SE,126,0.0,0.0,55,0.00,CLR,,0.00,WeatherDisplay:10.37,2013-08-29 02:24:00,
2013-08-28 21:29:00,84.0,66.1,29.97,SE,126,0.0,0.0,55,0.00,CLR,,0.00,WeatherDisplay:10.37,2013-08-29 02:29:00,
2013-08-28 21:34:00,83.6,66.2,29.97,SE,126,0.0,0.0,56,0.00,CLR,,0.00,WeatherDisplay:10.37,2013-08-29 02:34:00,
2013-08-28 21:39:00,83.4,66.6,29.97,SE,125,0.0,0.0,57,0.00,CLR,,0.00,WeatherDisplay:10.37,2013-08-29 02:39:00,
2013-08-28 21:44:00,83.2,66.4,29.97,SE,126,0.0,0.0,57,0.00,CLR,,0.00,WeatherDisplay:10.37,2013-08-29 02:44:00,
2013-08-28 21:49:00,82.7,66.9,29.98,SE,130,9.2,9.2,59,0.00,CLR,,0.00,WeatherDisplay:10.37,2013-08-29 02:49:00,
2013-08-28 21:54:00,82.3,67.5,29.98,SE,131,4.6,4.6,61,0.00,CLR,,0.00,WeatherDisplay:10.37,2013-08-29 02:54:00,
2013-08-28 21:59:00,82.1,67.8,29.98,SE,130,1.2,0.0,62,0.00,CLR,,0.00,WeatherDisplay:10.37,2013-08-29 02:59:00,
2013-08-28 22:04:00,82.0,67.7,29.98,SE,131,2.0,0.0,62,0.00,CLR,,0.00,WeatherDisplay:10.37,2013-08-29 03:04:00,
2013-08-28 22:09:00,81.9,67.6,29.98,SE,131,0.0,0.0,62,0.00,CLR,,0.00,WeatherDisplay:10.37,2013-08-29 03:09:00,
2013-08-28 22:14:00,81.8,68.0,29.98,SE,131,3.5,3.5,63,0.00,CLR,,0.00,WeatherDisplay:10.37,2013-08-29 03:14:00,
2013-08-28 22:19:00,81.7,68.3,29.99,SE,130,0.0,0.0,64,0.00,CLR,,0.00,WeatherDisplay:10.37,2013-08-29 03:19:00,
2013-08-28 22:24:00,81.7,68.8,29.99,SE,132,3.5,3.5,65,0.00,CLR,,0.00,WeatherDisplay:10.37,2013-08-29 03:24:00,
2013-08-28 22:29:00,81.7,68.8,29.99,SE,134,5.8,5.8,65,0.00,CLR,,0.00,WeatherDisplay:10.37,2013-08-29 03:29:00,
2013-08-28 22:34:00,81.7,69.2,29.99,SE,134,3.5,3.5,66,0.00,CLR,,0.00,WeatherDisplay:10.37,2013-08-29 03:34:00,
2013-08-28 22:39:00,81.8,69.3,29.99,SE,142,3.5,3.5,66,0.00,CLR,,0.00,WeatherDisplay:10.37,2013-08-29 03:39:00,
2013-08-28 22:44:00,81.8,69.3,29.99,SE,144,9.2,9.2,66,0.00,CLR,,0.00,WeatherDisplay:10.37,2013-08-29 03:44:00,
2013-08-28 22:49:00,81.8,69.3,29.99,SE,144,6.9,6.9,66,0.00,CLR,,0.00,WeatherDisplay:10.37,2013-08-29 03:49:00,
2013-08-28 22:54:00,81.8,69.3,29.99,SE,145,4.6,4.6,66,0.00,CLR,,0.00,WeatherDisplay:10.37,2013-08-29 03:54:00,
2013-08-28 22:59:00,81.8,69.8,30.00,SE,146,6.9,6.9,67,0.00,CLR,,0.00,WeatherDisplay:10.37,2013-08-29 03:59:00,
2013-08-28 23:01:00,81.7,69.7,30.00,SE,146,5.8,5.8,67,0.00,CLR,,0.00,WeatherDisplay:10.37,2013-08-29 04:01:00,
2013-08-28 23:02:00,81.7,69.7,30.00,SE,146,3.5,3.5,67,0.00,CLR,,0.00,WeatherDisplay:10.37,2013-08-29 04:02:00,
2013-08-28 23:07:00,81.6,69.6,30.00,SE,146,0.0,0.0,67,0.00,CLR,,0.00,WeatherDisplay:10.37,2013-08-29 04:07:00,
2013-08-28 23:12:00,81.5,69.5,30.00,SE,146,3.5,3.5,67,0.00,CLR,,0.00,WeatherDisplay:10.37,2013-08-29 04:12:00,
2013-08-28 23:17:00,81.4,69.8,30.00,SE,146,0.0,0.0,68,0.00,CLR,,0.00,WeatherDisplay:10.37,2013-08-29 04:17:00,
2013-08-28 23:22:00,81.2,69.6,30.00,SE,146,0.0,0.8,68,0.00,CLR,,0.00,WeatherDisplay:10.37,2013-08-29 04:22:00,
2013-08-28 23:27:00,81.1,70.0,30.00,SE,146,0.0,0.0,69,0.00,CLR,,0.00,WeatherDisplay:10.37,2013-08-29 04:27:00,
2013-08-28 23:32:00,80.9,69.8,30.00,SE,146,4.6,0.0,69,0.00,CLR,,0.00,WeatherDisplay:10.37,2013-08-29 04:32:00,
2013-08-28 23:37:00,80.8,69.7,30.00,SE,146,0.0,0.0,69,0.00,CLR,,0.00,WeatherDisplay:10.37,2013-08-29 04:37:00,
2013-08-28 23:42:00,80.7,70.0,30.00,SE,146,0.0,0.0,70,0.00,CLR,,0.00,WeatherDisplay:10.37,2013-08-29 04:42:00,
2013-08-28 23:47:00,80.6,69.9,30.00,SE,146,4.6,4.6,70,0.00,CLR,,0.00,WeatherDisplay:10.37,2013-08-29 04:47:00,
2013-08-28 23:52:00,80.4,70.1,30.00,SE,146,3.5,0.0,71,0.00,CLR,,0.00,WeatherDisplay:10.37,2013-08-29 04:52:00,
2013-08-28 23:57:00,80.3,70.0,30.00,SE,146,0.0,0.0,71,0.00,CLR,,0.00,WeatherDisplay:10.37,2013-08-29 04:57:00,